User: anonymous   Login
Location: Gallinara
(44.0333°N, 8.2333°E)
Time: 17:51:52
(UTC+00:00)
Language:

CZ-2C R/B - Orbit

View from above orbital plane
View from above orbital plane
View from above satellite
View from above satellite

Ground track
Ground track

The orbit data is extracted from the following two-line orbital elements,

1 36089U 09061B   20338.17401888  .00000040  00000-0  21327-4 0  9998
2 36089  98.1772 306.5717 0083101 114.1432 257.5099 14.49840142584999
Epoch (UTC): 03 December 2020 04:10:35
Eccentricity: 0.0083101
inclination: 98.1772°
perigee height: 667 km
apogee height: 785 km
right ascension of ascending node: 306.5717°
argument of perigee: 114.1432°
revolutions per day: 14.49840142
mean anomaly at epoch: 257.5099°
orbit number at epoch: 58499

The dashed part of the orbit path shows where the satellite is in the earth's shadow,  

DLR